Weather History for Tri-Cities, TN

Change the Weather History Date:

Wednesday, May 22, 2013

  Actual Average Record
Temperature  
Mean Temperature 72 °F 65 °F  
Max Temperature 84 °F 77 °F 94 °F (1941)
Min Temperature 59 °F 53 °F 31 °F (2002)
Degree Days  
Heating Degree Days 0 3  
Month to date heating degree days 94 93  
Since 1 July heating degree days 4295 4347  
Cooling Degree Days 7 3  
Month to date cooling degree days 34 34  
Year to date cooling degree days 40 45  
Growing Degree Days 20 (Base 50)    
Moisture  
Dew Point 62 °F    
Average Humidity 76    
Maximum Humidity 100    
Minimum Humidity 51    
Precipitation  
Precipitation 0.73 in 0.13 in 1.14 in (1972)
Month to date precipitation 3.20 2.67  
Year to date precipitation 23.80 16.26  
Snow  
Snow 0.00 in 0.00 in - ()
Month to date snowfall 0.0 0.0  
Since 1 July snowfall 9.2 13.3  
Snow Depth 0.00 in    
Sea Level Pressure  
Sea Level Pressure 29.93 in    
Wind  
Wind Speed 3 mph (ENE)    
Max Wind Speed 20 mph    
Max Gust Speed 26 mph    
Visibility 6 miles    
Events Fog , Rain , Thunderstorm    
T = Trace of Precipitation, MM = Missing Value Source: NWS Daily Summary

Daily Weather History Graph

Daily Weather History Graph

Search for Another Location

Airport:

Trip Planner

Search our weather history database for the weather conditions in past years. The results will help you decide how hot, cold, wet, or windy it might be!

Date:

Astronomy

May. 22, 2013 Rise Set
Actual Time 6:17 AM EDT 8:35 PM EDT
Civil Twilight 5:48 AM EDT 9:04 PM EDT
Nautical Twilight 5:12 AM EDT 9:40 PM EDT
Astronomical Twilight 4:33 AM EDT 10:20 PM EDT
Moon 5:59 PM EDT 4:16 AM EDT
Length of Visible Light 15h 16m
Length of Day
14h 17m
Waxing Gibbous, 91% of the Moon is Illuminated
May 22
Waxing Gibbous
May 25
Full
May 31
Last Quarter
Jun 8
New
Jun 16
First Quarter

Hourly Weather History & Observations

Time (EDT) Temp. Heat Index Dew Point Humidity Pressure Visibility Wind Dir Wind Speed Gust Speed Precip Events Conditions
12:53 AM 64.9 °F - 63.0 °F 93% 29.94 in 10.0 mi Calm Calm - 0.00 in   Mostly Cloudy
1:53 AM 64.0 °F - 62.1 °F 93% 29.92 in 10.0 mi North 3.5 mph - N/A   Mostly Cloudy
2:53 AM 63.0 °F - 62.1 °F 97% 29.90 in 8.0 mi Calm Calm - N/A   Mostly Cloudy
3:53 AM 60.1 °F - 59.0 °F 96% 29.88 in 3.0 mi Calm Calm - N/A   Scattered Clouds
4:00 AM 61.0 °F - 60.1 °F 97% 29.95 in 2.0 mi Calm Calm - N/A   Scattered Clouds
4:20 AM 62.1 °F - 61.0 °F 96% 29.95 in 0.5 mi Calm Calm - N/A Fog Fog
4:53 AM 60.1 °F - 60.1 °F 100% 29.88 in 0.5 mi Calm Calm - N/A Fog Fog
4:56 AM 60.1 °F - 60.1 °F 100% 29.95 in 1.0 mi Calm Calm - N/A   Mist
5:03 AM 61.0 °F - 60.1 °F 97% 29.96 in 1.5 mi Calm Calm - N/A   Scattered Clouds
5:08 AM 61.0 °F - 60.1 °F 97% 29.96 in 3.0 mi NNW 3.5 mph - N/A   Scattered Clouds
5:53 AM 60.1 °F - 59.0 °F 96% 29.90 in 0.5 mi Calm Calm - N/A Fog Fog
6:02 AM 59.0 °F - 57.9 °F 96% 29.97 in 0.5 mi East 3.5 mph - N/A Fog Fog
6:07 AM 60.1 °F - 59.0 °F 96% 29.98 in 0.2 mi Calm Calm - N/A Fog Fog
6:46 AM 61.0 °F - 60.1 °F 97% 29.99 in 0.1 mi Calm Calm - N/A Fog Fog
6:53 AM 61.0 °F - 60.1 °F 97% 29.92 in 0.1 mi Calm Calm - N/A Fog Fog
7:33 AM 61.0 °F - 61.0 °F 100% 30.00 in 0.1 mi Calm Calm - N/A Fog Fog
7:38 AM 61.0 °F - 61.0 °F 100% 30.00 in 0.5 mi Calm Calm - N/A Fog Fog
7:53 AM 61.0 °F - 61.0 °F 100% 29.94 in 1.0 mi Calm Calm - N/A   Mostly Cloudy
8:41 AM 63.0 °F - 62.1 °F 97% 30.00 in 6.0 mi Calm Calm - N/A   Mostly Cloudy
8:43 AM 64.0 °F - 63.0 °F 96% 30.00 in 6.0 mi ENE 4.6 mph - N/A   Scattered Clouds
8:53 AM 64.0 °F - 62.1 °F 93% 29.94 in 10.0 mi ESE 3.5 mph - N/A   Scattered Clouds
9:53 AM 69.1 °F - 64.0 °F 84% 29.94 in 10.0 mi Calm Calm - N/A   Mostly Cloudy
10:53 AM 73.9 °F - 64.0 °F 71% 29.93 in 10.0 mi Calm Calm - N/A   Scattered Clouds
11:53 AM 79.0 °F - 64.9 °F 62% 29.92 in 10.0 mi Calm Calm - N/A   Scattered Clouds
12:53 PM 82.9 °F 84.4 °F 64.0 °F 53% 29.89 in 10.0 mi SW 10.4 mph - N/A   Scattered Clouds
1:53 PM 82.9 °F 84.0 °F 63.0 °F 51% 29.87 in 10.0 mi West 6.9 mph - N/A   Scattered Clouds
2:05 PM 82.0 °F 83.1 °F 63.0 °F 52% 29.94 in 10.0 mi Variable 4.6 mph - N/A Thunderstorm Thunderstorm
2:53 PM 72.0 °F - 60.1 °F 66% 29.87 in 10.0 mi SE 15.0 mph 26.5 mph N/A Thunderstorm Thunderstorm
3:08 PM 69.1 °F - 57.9 °F 68% 29.92 in 10.0 mi East 9.2 mph 25.3 mph N/A Thunderstorm Thunderstorm
3:31 PM 69.1 °F - 60.1 °F 73% 29.93 in 2.0 mi Calm Calm - 0.00 in Rain , Thunderstorm Light Thunderstorms and Rain
3:53 PM 68.0 °F - 61.0 °F 78% 29.86 in 2.5 mi East 8.1 mph - 0.10 in Rain , Thunderstorm Thunderstorms and Rain
4:12 PM 66.0 °F - 62.1 °F 87% 29.93 in 4.0 mi Calm Calm - 0.05 in Rain , Thunderstorm Light Thunderstorms and Rain
4:53 PM 64.0 °F - 62.1 °F 93% 29.88 in 3.0 mi NNE 5.8 mph - 0.12 in Rain , Thunderstorm Thunderstorms and Rain
5:37 PM 64.9 °F - 63.0 °F 93% 29.97 in 1.5 mi WNW 4.6 mph - 0.13 in Rain , Thunderstorm Heavy Thunderstorms and Rain
5:53 PM 64.0 °F - 63.0 °F 96% 29.90 in 4.0 mi NE 3.5 mph - 0.19 in Rain , Thunderstorm Thunderstorms and Rain
6:33 PM 64.9 °F - 63.0 °F 93% 29.92 in 10.0 mi ESE 11.5 mph - 0.07 in Rain Light Rain
6:53 PM 64.9 °F - 63.0 °F 93% 29.87 in 10.0 mi ESE 6.9 mph - 0.07 in   Mostly Cloudy
7:53 PM 64.9 °F - 62.1 °F 90% 29.87 in 10.0 mi ENE 3.5 mph - N/A   Mostly Cloudy
8:53 PM 66.0 °F - 64.0 °F 93% 29.92 in 10.0 mi WSW 11.5 mph - 0.00 in Rain Light Rain
8:58 PM 66.0 °F - 64.0 °F 93% 29.99 in 10.0 mi SW 12.7 mph - 0.00 in Rain , Thunderstorm Light Thunderstorms and Rain
9:53 PM 63.0 °F - 61.0 °F 93% 29.91 in 3.0 mi Calm Calm - 0.25 in Thunderstorm Overcast
10:16 PM 63.0 °F - 61.0 °F 93% 29.96 in 10.0 mi East 3.5 mph - N/A   Mostly Cloudy
10:53 PM 63.0 °F - 61.0 °F 93% 29.89 in 10.0 mi ENE 3.5 mph - N/A   Mostly Cloudy
11:53 PM 62.1 °F - 61.0 °F 96% 29.89 in 10.0 mi Calm Calm - 0.00 in   Overcast